Weather History for KSAZ - February, 2014

Change the Weather History Date:

Friday, February 14, 2014

  Actual Average (KBRD) Record (KBRD)
Temperature  
Mean Temperature 0 °F -  
Max Temperature 10 °F 25 °F 45 °F (1967)
Min Temperature -11 °F -1 °F -28 °F (1949)
Degree Days  
Heating Degree Days 66    
Moisture  
Dew Point -7 °F    
Average Humidity 77    
Maximum Humidity 92    
Minimum Humidity 62    
Precipitation  
Precipitation 0.00 in - - ()
Sea Level Pressure  
Sea Level Pressure 29.91 in    
Wind  
Wind Speed 7 mph (WNW)    
Max Wind Speed 13 mph    
Max Gust Speed 10 mph    
Visibility 10 miles    
Events      
Averages and records for this station are not official NWS values.
T = Trace of Precipitation, MM = Missing Value Source: NWS Daily Summary

Daily Weather History Graph

Daily Weather History Graph

Search for Another Location

Airport or City:

Trip Planner

Search our weather history database for the weather conditions in past years. The results will help you decide how hot, cold, wet, or windy it might be!

Date:

Astronomy

Feb. 14, 2014 Rise Set
Actual Time 7:24 AM CST 5:43 PM CST
Civil Twilight 6:53 AM CST 6:14 PM CST
Nautical Twilight 6:17 AM CST 6:49 PM CST
Astronomical Twilight 5:42 AM CST 7:24 PM CST
Moon 5:51 PM CST (2/14) 6:49 AM CST (2/14)
Length of Visible Light 11h 21m
Length of Day
10h 19m
Full, 100% of the Moon is Illuminated
Feb 14
Full
Feb 14
Full
Feb 22
Last Quarter
Mar 1
New
Mar 8
First Quarter

Hourly Weather History & Observations

Time (CST) Temp. Windchill Dew Point Humidity Pressure Visibility Wind Dir Wind Speed Gust Speed Precip Events Conditions
12:13 AM -5.8 °F -21.2 °F -9.4 °F 84% 29.75 in 10.0 mi WNW 8.1 mph - N/A   Clear
12:33 AM -5.8 °F -21.2 °F -9.4 °F 84% 29.76 in 10.0 mi WNW 8.1 mph - N/A   Clear
12:53 AM -5.8 °F -21.2 °F -9.4 °F 84% 29.77 in 10.0 mi WNW 8.1 mph - N/A   Clear
1:13 AM -5.8 °F -19.9 °F -9.4 °F 84% 29.77 in 10.0 mi WNW 6.9 mph - N/A   Clear
1:34 AM -7.6 °F -22.1 °F -11.2 °F 84% 29.77 in 10.0 mi NW 6.9 mph - N/A   Clear
1:53 AM -7.6 °F -24.6 °F -11.2 °F 84% 29.78 in 10.0 mi NW 9.2 mph - N/A   Clear
2:13 AM -7.6 °F -23.4 °F -11.2 °F 84% 29.78 in 10.0 mi NW 8.1 mph - N/A   Clear
2:34 AM -9.4 °F -22.7 °F -11.2 °F 92% 29.78 in 10.0 mi NW 5.8 mph - N/A   Mostly Cloudy
2:53 AM -7.6 °F -22.1 °F -11.2 °F 84% 29.79 in 10.0 mi NW 6.9 mph - N/A   Overcast
3:13 AM -7.6 °F -20.6 °F -9.4 °F 92% 29.79 in 10.0 mi NW 5.8 mph - N/A   Overcast
3:33 AM -5.8 °F -18.4 °F -9.4 °F 84% 29.80 in 10.0 mi NW 5.8 mph - N/A   Overcast
3:53 AM -5.8 °F -19.9 °F -9.4 °F 84% 29.81 in 10.0 mi NW 6.9 mph - N/A   Overcast
4:14 AM -5.8 °F -19.9 °F -9.4 °F 84% 29.82 in 10.0 mi WNW 6.9 mph - N/A   Mostly Cloudy
4:33 AM -7.6 °F -23.4 °F -9.4 °F 92% 29.83 in 10.0 mi NW 8.1 mph - N/A   Scattered Clouds
4:53 AM -7.6 °F -22.1 °F -11.2 °F 84% 29.83 in 10.0 mi NW 6.9 mph - N/A   Clear
5:14 AM -9.4 °F -24.3 °F -11.2 °F 92% 29.84 in 10.0 mi NW 6.9 mph - N/A   Clear
5:33 AM -7.6 °F -22.1 °F -11.2 °F 84% 29.85 in 10.0 mi NW 6.9 mph - N/A   Clear
5:53 AM -9.4 °F -24.3 °F -13.0 °F 84% 29.86 in 10.0 mi NW 6.9 mph - N/A   Clear
6:13 AM -9.4 °F -22.7 °F -13.0 °F 84% 29.86 in 10.0 mi NW 5.8 mph - N/A   Clear
6:33 AM -11.2 °F -24.8 °F -14.8 °F 84% 29.87 in 10.0 mi NW 5.8 mph - N/A   Clear
6:53 AM -11.2 °F -24.8 °F -14.8 °F 84% 29.88 in 10.0 mi NW 5.8 mph - N/A   Clear
7:13 AM -11.2 °F -24.8 °F -14.8 °F 84% 29.89 in 10.0 mi NW 5.8 mph - N/A   Clear
7:34 AM -11.2 °F -24.8 °F -14.8 °F 84% 29.90 in 7.0 mi WNW 5.8 mph - N/A   Clear
7:53 AM -11.2 °F -26.4 °F -14.8 °F 84% 29.91 in 7.0 mi NW 6.9 mph - N/A   Clear
8:14 AM -9.4 °F -22.7 °F -14.8 °F 77% 29.92 in 10.0 mi NW 5.8 mph - N/A   Clear
8:34 AM -9.4 °F -24.3 °F -11.2 °F 92% 29.93 in 10.0 mi NW 6.9 mph - N/A   Clear
8:53 AM -7.6 °F -23.4 °F -11.2 °F 84% 29.94 in 10.0 mi NW 8.1 mph - N/A   Clear
9:13 AM -5.8 °F -19.9 °F -11.2 °F 77% 29.94 in 10.0 mi NW 6.9 mph - N/A   Clear
9:34 AM -4.0 °F -16.3 °F -9.4 °F 78% 29.94 in 10.0 mi NNW 5.8 mph - N/A   Clear
9:53 AM -2.2 °F -16.8 °F -7.6 °F 78% 29.95 in 10.0 mi NNW 8.1 mph - N/A   Clear
10:13 AM -0.4 °F -14.7 °F -7.6 °F 72% 29.95 in 10.0 mi NNW 8.1 mph - N/A   Clear
10:34 AM 1.4 °F -11.3 °F -5.8 °F 72% 29.96 in 10.0 mi NNW 6.9 mph - N/A   Clear
10:53 AM 3.2 °F -9.1 °F -5.8 °F 66% 29.97 in 10.0 mi NNW 6.9 mph 10.4 mph N/A   Clear
11:14 AM 3.2 °F -9.1 °F -5.8 °F 66% 29.97 in 10.0 mi NW 6.9 mph - N/A   Clear
11:34 AM 5.0 °F -6.9 °F -4.0 °F 66% 29.98 in 10.0 mi NW 6.9 mph - N/A   Clear
11:53 AM 6.8 °F -7.8 °F -2.2 °F 67% 29.98 in 10.0 mi WNW 10.4 mph - N/A   Clear
12:14 PM 6.8 °F -5.9 °F -2.2 °F 67% 29.97 in 10.0 mi NW 8.1 mph - N/A   Clear
12:33 PM 8.6 °F -1.3 °F -2.2 °F 62% 29.96 in 10.0 mi NW 5.8 mph - N/A   Clear
12:53 PM 8.6 °F -3.7 °F -0.4 °F 67% 29.96 in 10.0 mi WNW 8.1 mph - N/A   Clear
1:14 PM 10.4 °F -1.5 °F -0.4 °F 62% 29.95 in 10.0 mi WNW 8.1 mph - N/A   Clear
1:33 PM 10.4 °F 0.8 °F 1.4 °F 67% 29.95 in 10.0 mi WNW 5.8 mph - N/A   Clear
1:53 PM 10.4 °F -3.3 °F 1.4 °F 67% 29.96 in 10.0 mi West 10.4 mph - N/A   Clear
2:14 PM 10.4 °F -3.3 °F -0.4 °F 62% 29.96 in 10.0 mi West 10.4 mph - N/A   Clear
2:33 PM 10.4 °F -2.4 °F 1.4 °F 67% 29.96 in 10.0 mi West 9.2 mph - N/A   Clear
2:53 PM 10.4 °F -4.1 °F 1.4 °F 67% 29.97 in 10.0 mi West 11.5 mph - N/A   Clear
3:13 PM 10.4 °F -2.4 °F 1.4 °F 67% 29.97 in 10.0 mi West 9.2 mph - N/A   Clear
3:33 PM 10.4 °F -3.3 °F 1.4 °F 67% 29.96 in 10.0 mi West 10.4 mph - N/A   Clear
3:54 PM 8.6 °F -4.7 °F -0.4 °F 67% 29.96 in 10.0 mi West 9.2 mph - N/A   Clear
4:13 PM 8.6 °F -7.0 °F -0.4 °F 67% 29.98 in 10.0 mi West 12.7 mph - N/A   Clear
4:33 PM 8.6 °F -3.7 °F -0.4 °F 67% 29.97 in 10.0 mi West 8.1 mph - N/A   Clear
4:54 PM 8.6 °F -2.6 °F -0.4 °F 67% 29.97 in 10.0 mi West 6.9 mph - N/A   Clear
5:13 PM 6.8 °F -5.9 °F -0.4 °F 72% 29.98 in 10.0 mi West 8.1 mph - N/A   Clear
5:33 PM 6.8 °F -4.8 °F -2.2 °F 67% 29.98 in 10.0 mi West 6.9 mph - N/A   Clear
5:54 PM 6.8 °F -3.5 °F -2.2 °F 67% 29.97 in 10.0 mi WSW 5.8 mph - N/A   Clear
6:13 PM 3.2 °F -6.2 °F -2.2 °F 78% 29.95 in 10.0 mi West 4.6 mph - N/A   Clear
6:33 PM 1.4 °F -6.2 °F -4.0 °F 78% 29.95 in 10.0 mi West 3.5 mph - N/A   Clear
6:54 PM 1.4 °F -9.9 °F -4.0 °F 78% 29.95 in 10.0 mi West 5.8 mph - N/A   Clear
7:13 PM 1.4 °F -9.9 °F -5.8 °F 72% 29.96 in 10.0 mi West 5.8 mph - N/A   Clear
7:33 PM -0.4 °F -10.4 °F -5.8 °F 78% 29.96 in 10.0 mi West 4.6 mph - N/A   Clear
7:53 PM -0.4 °F -12.0 °F -5.8 °F 78% 29.96 in 10.0 mi West 5.8 mph - N/A   Mostly Cloudy
8:13 PM -0.4 °F -12.0 °F -5.8 °F 78% 29.97 in 10.0 mi West 5.8 mph - N/A   Mostly Cloudy
8:33 PM 1.4 °F -9.9 °F -5.8 °F 72% 29.97 in 10.0 mi West 5.8 mph - N/A   Mostly Cloudy
8:53 PM 1.4 °F -6.2 °F -5.8 °F 72% 29.97 in 10.0 mi West 3.5 mph - N/A   Overcast
9:13 PM 1.4 °F -6.2 °F -5.8 °F 72% 29.97 in 10.0 mi West 3.5 mph - N/A   Overcast
9:33 PM -0.4 °F - -5.8 °F 78% 29.96 in 10.0 mi Calm Calm - N/A   Mostly Cloudy
9:53 PM -2.2 °F - -7.6 °F 78% 29.96 in 10.0 mi Calm Calm - N/A   Scattered Clouds
10:13 PM -2.2 °F - -7.6 °F 78% 29.94 in 10.0 mi Calm Calm - N/A   Clear
10:34 PM -2.2 °F -10.4 °F -7.6 °F 78% 29.94 in 10.0 mi South 3.5 mph - N/A   Clear
10:53 PM -2.2 °F - -7.6 °F 78% 29.93 in 10.0 mi Calm Calm - N/A   Clear
11:13 PM -4.0 °F -12.4 °F -9.4 °F 78% 29.93 in 10.0 mi South 3.5 mph - N/A   Clear
11:34 PM -4.0 °F -12.4 °F -7.6 °F 85% 29.92 in 10.0 mi SSW 3.5 mph - N/A   Clear
11:53 PM -5.8 °F - -9.4 °F 84% 29.92 in 10.0 mi Calm Calm - N/A   Clear